Showing default

COSMOS 2269, 23000

Orbit data source: Space-Track

COSMOS 2269, 23000 is a payload satellite owned by VKS (CIS) in LEO that was launched on Sat, 12 Feb 1994 UTC via a TSIKLON-3 launch vehicle from the Plesetsk Missile And Space Complex (PKMTR). Payload-class satellites include a variety of spacecraft equipped with specific instruments for various scientific and technological missions. These include communications satellites like Starlink; space stations such as the ISS; scientific satellites like the Hubble; Earth observation satellites from companies like Planet Labs, Umbra, and HawkEye 360; GPS; miniature CubeSats for education and research; and military/defense satellites.

Loading next visibility...
Identifier
23000, 1994-011B
Orbit
LEO
Country
Flag of CISCIS
Related business
Manufacturer
NPO PM
Mission
Defense Communications
Bus & Motor
STRELA-3, Unknown motor
Mass
225 kg wet, 225 kg dry
Launch date (UTC)
1994-02-12 (32 years ago)
Launch vehicle
TSIKLON-3
Launch site
Plesetsk Missile And Space Complex (PKMTR)
Object type
Payload
Rocket body
Debris
Shape & HBR
Cyl, 0.8 m
Radar Cross Section
1.257 m², Large (>1 m²)

Expand to show TLE details & history
Last TLE update: 1 day ago

TLE from 1 day ago
0 COSMOS 2269
1 23000U 94011B   25257.46252267  .00000003  00000-0 -40066-4 0  9999
2 23000  82.5686 137.1976 0007950  92.0358  81.6965 12.61934407454896
Epoch: 2025-09-14T11:06Z
TLE epoch observation values (Epoch: 2025-09-14T11:06:01.958Z)
Latitude
6.05186°
Longitude
156.21983°
Altitude
1,416.23 km
Speed
7.153 km/s
True Right ascension
21h 05m 38s
True Declination
6° 01' 08"
Sunlit
Object was in full shadow at epoch
Visualization orbit readout
Latitude
Unknown
Longitude
Unknown
Altitude
Unknown
Speed
Unknown
Apparent Right ascension
Unknown
Apparent Declination
Unknown
Sunlit
N/A
Visualization observer readout
Local Sidereal Time
03:54:35
Azimuth
Unknown
Elevation
Unknown
Doppler factor
Unknown
Orbital elements
Apogee altitude
1,418.485 km
Perigee altitude
1,406.098 km
Semi-major axis
7,790.429 km
Eccentricity
0.0008
Inclination
82.5686°
RAAN
137.1976°
Arg. of periapsis
92.0358°
True anomaly
81.78666°
Mean anomaly
81.6965°
Eccentric anomaly
81.74158°
Mean motion
3.15647 °/min
Orbital period
114.05 mins
BSTAR
-0.000040066
Loading maneuver chart data...
Computing Atmospheric mass density...
Loading historical data...
Loading historical data...
Loading historical data...
Loading historical data...
Loading historical data...
Loading historical data...
Loading historical data...

Documentation

Showing up to 5 results
|